Location: Kermapucano
(48.0667°N, 3.3000°W)
Time: 19:27:38
(UTC+00:00)

SAR-Lupe-1 - Pass Details

Date: 29 November 2020
Orbit: 480 x 485 km, 98.2° (Epoch: 23 January)

Event Time Altitude Azimuth Distance (km) Brightness Sun altitude
Rises 05:33:14 0° 173° (S) 2,541 7.9 -20.5°
Reaches altitude 10° 05:35:18 10° 176° (S) 1,666 6.9 -20.1°
Enters shadow 05:38:50 61° 257° (WSW) 557 4.0 -19.6°
